Location: Newark
(35.5300°N, 14.3000°E)
Time: 06:30:00
(UTC+00:00)

Transit 4A - Pass Details

Date: 27 November 2019
Orbit: 872 x 973 km, 66.8° (Epoch: 27 January)

Event Time Altitude Azimuth Distance (km) Brightness Sun altitude
Exits shadow 04:51:16 - 324° (NW) 2,641 9.8 -11.9°
Reaches altitude 10° 04:51:33 10° 323° (NW) 2,536 9.7 -11.8°
Maximum altitude 04:57:12 52° 248° (WSW) 1,071 8.0 -10.7°
Drops below altitude 10° 05:02:48 10° 173° (S) 2,510 10.5 -9.6°
Sets 05:05:19 0° 169° (S) 3,448 11.3 -9.2°
